STARLINK-4675, 53601

Orbit data source: Space-Track

STARLINK-4675, 53601 is a payload satellite owned by SpaceX/Seattle (US) in LEO that was launched on Sun, 28 Aug 2022 UTC via an FALCON 9 launch vehicle from the Air Force Eastern Test Range (AFETR). Payload-class satellites include a variety of spacecraft equipped with specific instruments for various scientific and technological missions. These include communications satellites like Starlink; space stations such as the ISS; scientific satellites like the Hubble; Earth observation satellites from companies like Planet Labs, Umbra, and HawkEye 360; GPS; miniature CubeSats for education and research; and military/defense satellites.

Loading next visibility...
Identifier
53601, 2022-104P
Orbit
LEO
Country
Flag of USUS
Related business
Manufacturer
SpaceX/Seattle
Mission
Operational Commercial Communications
Bus & Motor
STARLINK, Unknown motor
Mass
300 kg wet, ~290 kg dry
Launch date (UTC)
2022-08-28 (3 years ago)
Launch vehicle
FALCON 9
Launch site
Air Force Eastern Test Range (AFETR)
Object type
Payload
Rocket body
Debris
Shape & HBR
Box + 1 Pan, 10.1 m
Radar Cross Section
13.562 m², Large (>1 m²)

Expand to show TLE details & history
Last TLE update: 18 hours ago

TLE from 18 hours ago
0 STARLINK-4675
1 53601U 22104P   25347.22491634  .00000290  00000-0  36322-4 0  9997
2 53601  53.2182 272.1293 0001332 103.1955 256.9186 15.08836772182563
Epoch: 2025-12-13T05:23Z
TLE epoch observation values (Epoch: 2025-12-13T05:23:52.771Z)
Latitude
-0.00002°
Longitude
109.00416°
Altitude
540.859 km
Speed
7.593 km/s
True Right ascension
18h 08m 31s
True Declination
0° 00' 00"
Sunlit
Object was in daylight at epoch
Visualization orbit readout
Latitude
Unknown
Longitude
Unknown
Altitude
Unknown
Speed
Unknown
Apparent Right ascension
Unknown
Apparent Declination
Unknown
Sunlit
N/A
Visualization observer readout
Local Sidereal Time
21:44:11
Azimuth
Unknown
Elevation
Unknown
Doppler factor
Unknown
Orbital elements
Apogee altitude
540.92 km
Perigee altitude
539.077 km
Semi-major axis
6,918.135 km
Eccentricity
0.00013
Inclination
53.2182°
RAAN
272.1293°
Arg. of periapsis
103.1955°
True anomaly
256.90373°
Mean anomaly
256.9186°
Eccentric anomaly
256.91117°
Mean motion
3.7719 °/min
Orbital period
95.44 mins
BSTAR
0.000036322
Loading maneuver chart data...
Computing Atmospheric mass density...
Loading historical data...
Loading historical data...
Loading historical data...
Loading historical data...
Loading historical data...
Loading historical data...
Loading historical data...

Documentation

Showing up to 5 results
|